Showing default

ICEYE-X50, 63255

Orbit data source: Space-Track

ICEYE-X50, 63255 is a payload satellite owned by ICEYE (FI) in SSO that was launched on Sat, 15 Mar 2025 UTC via an FALCON 9 launch vehicle from the Air Force Western Test Range (AFWTR). Payload-class satellites include a variety of spacecraft equipped with specific instruments for various scientific and technological missions. These include communications satellites like Starlink; space stations such as the ISS; scientific satellites like the Hubble; Earth observation satellites from companies like Planet Labs, Umbra, and HawkEye 360; GPS; miniature CubeSats for education and research; and military/defense satellites.

Loading next visibility...
Identifier
63255, 2025-052AX
Orbit
SSO
Country
Flag of FIFI / FIN
Related business
Manufacturer
ICEYE
Mission
Operational Commercial Radar Imaging
Bus & Motor
ICEYE, Unknown motor
Mass
80 kg wet, 80 kg dry
Launch date (UTC)
2025-03-15 (1 year ago)
Launch vehicle
FALCON 9
Launch site
Air Force Western Test Range (AFWTR)
Object type
Payload
Rocket body
Debris
Shape & HBR
Box + 1 Pan, 2.4 m
Radar Cross Section
0.776 m², Medium (>0.1 m² and < 1m²)

Expand to show TLE details & history
Last TLE update: 8 hours ago

TLE from 8 hours ago
0 ICEYE-X50
1 63255U 25052AX  26175.25117230  .00001779  00000-0  16662-3 0  9995
2 63255  97.6889  67.0108 0002326 139.3156 220.8239 14.95300329 69707
Epoch: 2026-06-24T06:01Z
TLE epoch observation values (Epoch: 2026-06-24T06:01:41.286Z)
Latitude
-0.00004°
Longitude
64.17771°
Altitude
585.715 km
Speed
7.567 km/s
True Right ascension
04h 28m 02s
True Declination
0° 00' 00"
Sunlit
Object was in daylight at epoch
Visualization orbit readout
Latitude
Unknown
Longitude
Unknown
Altitude
Unknown
Speed
Unknown
Apparent Right ascension
Unknown
Apparent Declination
Unknown
Sunlit
N/A
Visualization observer readout
Local Sidereal Time
00:46:46
Azimuth
Unknown
Elevation
Unknown
Doppler factor
Unknown
Orbital elements
Apogee altitude
580.07 km
Perigee altitude
576.834 km
Semi-major axis
6,956.589 km
Eccentricity
0.00023
Inclination
97.6889°
RAAN
67.0108°
Arg. of periapsis
139.3156°
True anomaly
220.80648°
Mean anomaly
220.8239°
Eccentric anomaly
220.81519°
Mean motion
3.74066 °/min
Orbital period
96.24 mins
BSTAR
0.00016662
Loading maneuver chart data...
Computing Atmospheric mass density...
Loading historical data...
Loading historical data...
Loading historical data...
Loading historical data...
Loading historical data...
Loading historical data...
Loading historical data...

Documentation

Showing up to 5 results
|